Location: Unspecified
(0.0000°N, 0.0000°E)
Time: 11:43:47
(UTC+00:00)

Explorer 11/Cluster Stage 4 - Pass Details

Date: 01 October 2020
Orbit: 467 x 1258 km, 28.8° (Epoch: 28 October)

Event Time Altitude Azimuth Distance (km) Brightness Sun altitude
Rises 18:50:23 0° 233° (SW) 2,539 10.2 -15.2°
Reaches altitude 10° 18:52:38 10° 228° (SW) 1,623 9.0 -15.8°
Maximum altitude 18:56:11 54° 150° (SSE) 567 5.7 -16.7°
Enters shadow 18:57:08 40° 98° (E) 699 5.8 -16.9°
Drops below altitude 10° 18:59:47 10° 71° (ENE) 1,645 - -17.6°
Sets 19:02:05 0° 66° (ENE) 2,579 - -18.1°
